This demonstration page uses our WeatherBlox Daily Observations layout. Learn more.

Left ArrowRight Arrow

Hourly Observations for March 5, 2015

Temp ( °F °C ) Dew Point ( °F °C ) Humidity (%) Winds ( mph kmh ) Pressure ( in mb ) Visibility ( mi km ) Precip ( " mm )
12:53 am 00:53 Clear 41 5 31 -0.6 67 67 Calm 30.26 1025 10 16 0.00 0.00
1:53 am 01:53 Clear 40 4.4 32 0 73 73 Calm 30.27 1025 10 16 0.00 0.00
2:53 am 02:53 Clear 42 5.6 32 0 68 68 Calm 30.27 1025 10 16 0.00 0.00
3:53 am 03:53 Clear 39 3.9 31 -0.6 73 73 NNW 5 7 30.27 1025 10 16 0.00 0.00
4:53 am 04:53 Clear 37 2.8 31 -0.6 79 79 Calm 30.29 1026 10 16 0.00 0.00
5:53 am 05:53 Clear 35 1.7 30 -1.1 82 82 Calm 30.31 1026 10 16 0.00 0.00
6:23 am 06:23 Clear N/A N/A N/A Calm N/A 2 3 0.00 0.00
6:53 am 06:53 Sunny 35 1.7 31 -0.6 85 85 Calm 30.33 1027 10 16 0.00 0.00
7:53 am 07:53 Sunny 40 4.4 33 0.6 77 77 Calm 30.35 1028 10 16 0.00 0.00
8:53 am 08:53 Sunny 51 10.6 35 1.7 54 54 Calm 30.36 1028 10 16 0.00 0.00
9:53 am 09:53 Sunny 57 13.9 34 1.1 42 42 NE 3 6 30.36 1028 10 16 0.00 0.00
10:53 am 10:53 Sunny 63 17 32 0 32 32 NNE 5 7 30.36 1028 10 16 0.00 0.00
11:53 am 11:53 Sunny 64 17.8 31 -0.6 29 29 Calm 30.34 1027 10 16 0.00 0.00
12:53 pm 12:53 Sunny 67 19.4 30 -1.1 25 25 E 3 6 30.31 1026 10 16 0.00 0.00
1:53 pm 13:53 Sunny 68 20 30 -1.1 24 24 SW 3 6 30.29 1026 10 16 0.00 0.00
2:53 pm 14:53 Sunny 71 21.7 29 -1.7 21 21 VRB 3 6 30.27 1025 10 16 0.00 0.00
3:53 pm 15:53 Sunny 70 21.1 27 -2.8 20 20 SE 6 9 30.27 1025 10 16 0.00 0.00
4:53 pm 16:53 Sunny 70 21.1 31 -0.6 23 23 SE 3 6 30.26 1025 10 16 0.00 0.00
5:53 pm 17:53 Sunny 67 19.4 34 1.1 30 30 E 3 6 30.27 1025 10 16 0.00 0.00
6:53 pm 18:53 Clear 59 15 36 2.2 42 42 N 3 6 30.28 1026 10 16 0.00 0.00
7:53 pm 19:53 Clear 53 11.7 34 1.1 48 48 Calm 30.29 1026 10 16 0.00 0.00
8:53 pm 20:53 Clear 51 10.6 35 1.7 54 54 N 3 6 30.30 1026 10 16 0.00 0.00
9:53 pm 21:53 Clear 49 9.4 34 1.1 56 56 NNW 3 6 30.31 1026 10 16 0.00 0.00
10:53 pm 22:53 Clear 47 8.3 34 1.1 61 61 Calm 30.31 1027 10 16 0.00 0.00
11:53 pm 23:53 Clear 44 6.7 34 1.1 68 68 Calm 30.31 1026 10 16 0.00 0.00

Powered by AerisWeather